User: anonymous   Login
Location: Unspecified
(0.0000°N, 0.0000°E)
Time: 18:09:30
(UTC+00:00)
Language:

STARLINK-31050 - Orbit

View from above orbital plane
View from above orbital plane
View from above satellite
View from above satellite

Ground track
Ground track

The orbit is defined by the following mean orbital elements,

1 58546U          26145.51027505 +.00000000 +00000-0 +76532-5 0 00002
2 58546  53.1615  65.4407 0001292  85.9128 274.2022 15.34388905    09
Epoch (UTC): 25 May 2026 12:14:47
Eccentricity: 0.0001292
inclination: 53.1615°
perigee height: 462 km
apogee height: 464 km
right ascension of ascending node: 65.4407°
argument of perigee: 85.9128°
revolutions per day: 15.34388905
mean anomaly at epoch: 274.2022°

The dashed part of the orbit path shows where the satellite is in the earth's shadow,  

DLR